ATLAS CENTAUR 2 DEB, 739

Orbit data source: Space-Track

ATLAS CENTAUR 2 DEB, 739 is space debris in LEO originally from a launch on Wed, 27 Nov 1963 UTC launched from the Air Force Eastern Test Range (AFETR). Debris objects in space refer to the collection of defunct objects orbiting the Earth. Examples of debris include non-operational satellites, rocket bodies, and fragments generated from explosions, collisions, or faulty payload assembly.

Loading next visibility...
Identifier
739, 1963-047H
Orbit
LEO
Last TLE update
22 hours ago
Origin
Manufacturer
GD/Convair
Mission
Spacecraft
Bus & Motor
CENTAUR PART, Unknown motor
Mass
Unknown
Launch date (UTC)
1963-11-27 (62 years ago)
Launch vehicle
Unknown
Launch site
Air Force Eastern Test Range (AFETR)
Object type
Payload
Rocket body
Debris
Shape & HBR
Unknown
Radar Cross Section
0.290 m², Medium (>0.1 m² and < 1m²)

Expand to show TLE details & history

TLE from 22 hours ago
0 ATLAS CENTAUR 2 DEB
1 00739U 63047H   25166.59650708  .00000814  00000-0  11921-3 0  9999
2 00739  30.4241 255.7022 0637252 190.2058 168.5029 13.84791650 90529
Epoch: 2025-06-15T14:18Z
TLE epoch observation values (Epoch: 2025-06-15T14:18:58.211Z)
Latitude
0.00001°
Longitude
136.84034°
Altitude
1,403.856 km
Speed
6.933 km/s
True Right ascension
17h 02m 48s
True Declination
0° 00' 00"
Sunlit
Object was in full shadow at epoch
Visualization orbit readout
Latitude
-24.56562°
Longitude
81.14526°
Altitude
1,062.116 km
Speed
7.267 km/s
Apparent Right ascension
12h 26m 00s
Apparent Declination
-32° 30' 02"
Sunlit
Object is in full shadow
Visualization observer readout
Local Sidereal Time
23:10:42
Azimuth
290.194° WNW
Elevation
-73.142°
Doppler factor
1
Orbital elements
Apogee altitude
1,417.698 km
Perigee altitude
483.639 km
Semi-major axis
7,328.806 km
Eccentricity
0.06373
Inclination
30.4241°
RAAN
255.7022°
Arg. of periapsis
190.2058°
True anomaly
Unknown
Mean anomaly
168.5029°
Eccentric anomaly
Unknown
Mean motion
3.45934 °/min
Orbital period
104.07 mins
BSTAR
0.00011921
Loading maneuver chart data...
Loading SW <> Apogee altitude chart data...

ATLAS CENTAUR 2 DEB Visibility forecast

Observer location: undefined°, undefined°

Span
Click to sort rows by Start time (UTC) header in descending order
Start Az.
Max El. time (UTC)
Max El. Az.
Max El.
End time (UTC)
End Az.
10 mins2025-06-16 13:15:03.013Z252.68° W2025-06-16 13:21:03.013Z195.285° SSW27.131°2025-06-16 13:25:03.013Z141.385° SSE
10 mins2025-06-17 08:01:03.013Z190.075° SSW2025-06-17 08:06:03.013Z151.909° SSE19.307°2025-06-17 08:11:03.013Z113.728° SE
12 mins2025-06-17 09:50:03.013Z223.922° SW2025-06-17 09:56:03.013Z170.171° S30.054°2025-06-17 10:02:03.013Z109.762° ESE
11 mins2025-06-17 11:41:03.013Z242.836° WSW2025-06-17 11:47:03.013Z176.064° S32.283°2025-06-17 11:52:03.013Z120.403° SE
|